Regional Weather Roundup
Issued by NWS

Home | Current Version | Previous Version | Graphics & Text | Print | Product List | Glossary On
Versions: 1 2 3 4 5 6 7 8 9 10 11 12 13 14 15 16 17 18 19 20 21 22 23 24 25 26 27 28 29 30 31 32 33 34 35 36 37 38 39 40 41 42 43 44 45 46 47 48 49 50
000
ASUS45 KBOU 040007
RWRCO

WEATHER ROUNDUP FOR COLORADO
NATIONAL WEATHER SERVICE DENVER/BOULDER CO
600 PM MDT THU SEP 03 2015

NOTE: "FAIR" INDICATES FEW OR NO CLOUDS BELOW 12000 FEET WITH NO
SIGNIFICANT WEATHER AND/OR OBSTRUCTIONS TO VISIBILITY.

COZ001>005-013-030-031-040100-
...NORTHWEST COLORADO...

CITY           SKY/WX    TMP DP  RH WIND       PRES   REMARKS
CRAIG          PTSUNNY   71  47  42 E20G28    30.05F
HAYDEN         PTSUNNY   66  43  42 E18       30.10F
MEEKER         MOSUNNY   75  46  35 S10       30.05F
MOUNT WERNER   NOT AVBL
STEAMBOAT SPGS PTSUNNY   67  43  42 CALM      30.13F
WALDEN         CLOUDY    54  46  76 CALM      30.25S
$$

COZ006>008-011-040100-
...WEST CENTRAL VALLEYS...

CITY           SKY/WX    TMP DP  RH WIND       PRES   REMARKS
GRAND JUNCTION MOSUNNY   79  47  32 S17G25    29.93F
MONTROSE       MOSUNNY   77  50  38 NE3       30.04F
EAGLE          MOSUNNY   70  46  43 CALM      30.16F
RIFLE          SUNNY     75  51  43 VRB6      30.03F
DELTA          MOSUNNY   82  46  28 NE6       30.00F
NUCLA          MOSUNNY   82  32  16 SW13      30.04F
$$

COZ017>023-064>068-040100-
...SOUTHWEST COLORADO...

CITY           SKY/WX    TMP DP  RH WIND       PRES   REMARKS
DURANGO        MOSUNNY   78  37  22 SW13      30.08F
CORTEZ         MOSUNNY   82  40  22 W7        30.03F
PAGOSA SPRINGS MOSUNNY   72  40  31 S3        30.18F
TELLURIDE      MOSUNNY   64  46  50 CALM      30.28F
WOLF CREEK PAS NOT AVBL
$$

COZ009-010-012-014-032>034-037-058>063-040100-
...CENTRAL COLORADO...

CITY           SKY/WX    TMP DP  RH WIND       PRES   REMARKS
ASPEN          MOSUNNY   63  47  55 S5        30.19F
BUENA VISTA    CLOUDY    68  44  42 SW10      30.19S
COPPER MTN     FOG       46  43  87 SE3       30.48S VSB<1/4
BERTHOUD PASS  HAZE      37  27  65 NW9G22    30.50S VSB<1/4
COTTONWOOD PAS MOSUNNY   61  43  51 W9        30.33S
GUNNISON       SUNNY     64  46  52 N6        30.22F
KREMMLING      CLOUDY    59  46  63 NE5       30.22F
LEADVILLE      CLOUDY    54  44  69 N8        30.33F
MONARCH PASS   MOSUNNY   50  41  71 W21G29    30.56F
SALIDA         MOSUNNY   74  42  31 W9G17     30.22F
SUNLIGHT       SUNNY     54  45  71 CALM      30.41F
WILKERSON PASS MOSUNNY   54  43  66 SW6       30.44S
$$

COZ069>075-040100-
...SAN LUIS VALLEY/SANGRE DE CRISTO MOUNTAINS...

CITY           SKY/WX    TMP DP  RH WIND       PRES   REMARKS
ALAMOSA        PTSUNNY   65  46  50 NE14      30.18S
LA VETA PASS   PTSUNNY   54  43  66 MISG      30.33S
SAGUACHE       MOSUNNY   68  46  45 W7        30.20F
$$

COZ035-036-038>040-040100-
...NORTHERN COLORADO FRONT RANGE...

CITY           SKY/WX    TMP DP  RH WIND       PRES   REMARKS
DENVER INTL AP LGT RAIN  64  58  80 SW18G31   30.05R
DMNS CITY PARK   N/A     65  58  79 E3G13     30.05S
AURORA         LGT RAIN  62  60  92 W8        30.07R
FRONT RANGE AP RAIN      70  54  56 SW23G32   30.08R
ERIE MUNI ARPT LGT RAIN  66  57  72 S5        30.02R
BOULDER MUN AP LGT RAIN  66  55  68 SE5       30.01F
CENTENNIAL     DRIZZLE   64  59  83 W6        30.08R
BROOMFIELD     LGT RAIN  64  57  77 W5        30.06R
FORT COLLINS   PTSUNNY   73  52  46 W9        30.00S
LONGMONT       PTSUNNY   76  53  44 S3        30.02R
$$

COZ041-046-047-076>085-087-088-040100-
...PIKES PEAK/PALMER DIVIDE AND SOUTHERN FOOTHILLS...

CITY           SKY/WX    TMP DP  RH WIND       PRES   REMARKS
COLO. SPRINGS  TSTM      65  55  70 W21       30.09R
A. F. ACADEMY  LGT RAIN  63  55  77 NW9       30.09R
ELLICOTT       PTSUNNY  N/A N/A N/A NW18G31   30.02R THUNDER
FALCON         CLOUDY    65  49  56 MISG      30.09S
FORT CARSON    PTSUNNY   64  57  79 NW13      30.01F THUNDER
LIMON          CLOUDY    82  45  27 N14       29.93S
MONUMENT HILL  LGT RAIN  55  52  88 NW16      30.13F
TRINIDAD       MOSUNNY   83  44  25 N6        29.94F
$$

COZ042>045-048>051-090-091-040100-
...NORTHEAST COLORADO...

CITY           SKY/WX    TMP DP  RH WIND       PRES   REMARKS
GREELEY ARPT   CLOUDY    72  52  49 NW13      29.97S
AKRON          PTSUNNY   86  44  23 N16       29.89S
BURLINGTON     MOSUNNY   89  47  23 S9        29.83F
WRAY           CLOUDY    95  38  13 NE8       29.79S
STERLING       PTSUNNY   82  48  30 NW10      29.84S
HOLYOKE        PTSUNNY   90  54  29 CALM      29.81S
FORT MORGAN    PTSUNNY   77  47  34 W12       29.91S
$$

COZ086-089-092>099-040100-
...SOUTHEAST COLORADO...

CITY           SKY/WX    TMP DP  RH WIND       PRES   REMARKS
PUEBLO         CLOUDY    75  57  53 NW18      29.90R THUNDER
LA JUNTA       PTSUNNY   93  42  17 CALM      29.80F
LAMAR          PTSUNNY   92  46  20 S16G24    29.75S
SPRINGFIELD      N/A     90  44  20 S24G32    29.86S
$$




USA.gov is the U.S. government's official web portal to all federal, state and local government web resources and services.